Weather History for Jonesboro, AR

Change the Weather History Date:

Tuesday, September 27, 2011

  Actual Average Record
Temperature  
Mean Temperature 67 °F 68 °F  
Max Temperature 82 °F 79 °F 97 °F (1939)
Min Temperature 51 °F 56 °F 36 °F (1942)
Degree Days  
Heating Degree Days 0 2  
Month to date heating degree days 9 12  
Since 1 July heating degree days 9 12  
Cooling Degree Days 2 4  
Month to date cooling degree days 168 213  
Year to date cooling degree days 2156 1759  
Growing Degree Days 17 (Base 50)    
Moisture  
Dew Point 50 °F    
Average Humidity 59    
Maximum Humidity 89    
Minimum Humidity 28    
Precipitation  
Precipitation 0.00 in 0.12 in 3.32 in (1935)
Month to date precipitation 2.80 2.65  
Year to date precipitation 37.27 33.76  
Snow  
Snow 0.00 in 0.00 in 0.00 in (2002)
Month to date snowfall 0.0  
Since 1 July snowfall 0.0  
Since 1 September snowfall 0.0  
Snow Depth -    
Sea Level Pressure  
Sea Level Pressure 29.89 in    
Wind  
Wind Speed 6 mph (West)    
Max Wind Speed 20 mph    
Max Gust Speed 25 mph    
Visibility 10 miles    
Events      
T = Trace of Precipitation, MM = Missing Value Source: NWS Daily Summary

Daily Weather History Graph

Daily Weather History Graph

Search for Another Location

Airport:

Trip Planner

Search our weather history database for the weather conditions in past years. The results will help you decide how hot, cold, wet, or windy it might be!

Date:

Astronomy

Sep. 27, 2011 Rise Set
Actual Time 6:54 AM CDT 6:52 PM CDT
Civil Twilight 6:28 AM CDT 7:17 PM CDT
Nautical Twilight 5:58 AM CDT 7:47 PM CDT
Astronomical Twilight 5:28 AM CDT 8:17 PM CDT
Moon 7:06 AM CDT (9/27) 6:47 PM CDT (9/27)
Length of Visible Light 12h 49m
Length of Day
11h 58m
New Moon, 0% of the Moon is Illuminated
Sep 27
New Moon
Oct 3
First Quarter
Oct 11
Full
Oct 19
Last Quarter
Oct 26
New

Hourly Weather History & Observations

Time (CDT) Temp. Dew Point Humidity Pressure Visibility Wind Dir Wind Speed Gust Speed Precip Events Conditions
12:53 AM 52.0 °F 48.0 °F 86% 29.90 in 10.0 mi Calm Calm - N/A   Clear
1:53 AM 52.0 °F 48.0 °F 86% 29.91 in 10.0 mi Calm Calm - N/A   Clear
2:53 AM 53.1 °F 48.0 °F 83% 29.90 in 10.0 mi Calm Calm - N/A   Clear
3:53 AM 52.0 °F 48.0 °F 86% 29.88 in 10.0 mi Calm Calm - N/A   Clear
4:53 AM 53.1 °F 48.0 °F 83% 29.88 in 10.0 mi SSW 3.5 mph - N/A   Clear
5:53 AM 54.0 °F 48.0 °F 80% 29.88 in 10.0 mi Calm Calm - N/A   Clear
6:53 AM 57.0 °F 48.9 °F 74% 29.90 in 10.0 mi WSW 5.8 mph - N/A   Scattered Clouds
7:53 AM 59.0 °F 50.0 °F 72% 29.92 in 10.0 mi WSW 6.9 mph - N/A   Clear
8:53 AM 64.0 °F 51.1 °F 63% 29.92 in 10.0 mi WSW 4.6 mph - N/A   Mostly Cloudy
9:53 AM 70.0 °F 51.1 °F 51% 29.95 in 10.0 mi West 12.7 mph - N/A   Clear
10:53 AM 75.0 °F 50.0 °F 41% 29.94 in 10.0 mi West 12.7 mph - N/A   Clear
11:53 AM 78.1 °F 48.9 °F 36% 29.93 in 10.0 mi West 8.1 mph 17.3 mph N/A   Clear
12:53 PM 80.6 °F 48.2 °F 32% 29.91 in 10.0 mi West 15.0 mph 20.7 mph N/A   Clear
1:53 PM 80.1 °F 48.0 °F 32% 29.88 in 10.0 mi WNW 17.3 mph - N/A   Clear
2:53 PM 82.0 °F 48.0 °F 30% 29.86 in 10.0 mi West 11.5 mph - N/A   Clear
3:53 PM 82.0 °F 46.9 °F 29% 29.84 in 10.0 mi WNW 10.4 mph 18.4 mph N/A   Clear
4:53 PM 81.0 °F 48.0 °F 31% 29.84 in 10.0 mi WNW 12.7 mph - N/A   Clear
5:53 PM 80.1 °F 48.0 °F 32% 29.85 in 10.0 mi WNW 8.1 mph - N/A   Clear
6:53 PM 73.9 °F 50.0 °F 43% 29.86 in 10.0 mi Calm Calm - N/A   Clear
7:53 PM 64.9 °F 54.0 °F 68% 29.86 in 10.0 mi Calm Calm - N/A   Clear
8:53 PM 62.1 °F 54.0 °F 75% 29.87 in 10.0 mi Calm Calm - N/A   Clear
9:53 PM 62.1 °F 54.0 °F 75% 29.88 in 10.0 mi Calm Calm - N/A   Clear
10:53 PM 61.0 °F 54.0 °F 78% 29.88 in 10.0 mi WNW 3.5 mph - N/A   Clear
11:53 PM 60.1 °F 54.0 °F 80% 29.88 in 10.0 mi Calm Calm - N/A   Clear